This is the latest recevied weather packets stored in our database for station/object KD7JB. If no packets are shown the sender has not sent any weather packets the latest 10 day(s).
| Time | Temp. | Humidity | Pressure | Rain* | Wind** | Luminosity | Snow |
|---|---|---|---|---|---|---|---|
| 1778018734 | 21.11° C | 44% | 1174.7 hPa | 0 mm | - | 628 W/m² | - |
| 1778018432 | 20.56° C | 44% | 1174.7 hPa | 0 mm | - | 664 W/m² | - |
| 1778018129 | 20.56° C | 44% | 1174.9 hPa | 0 mm | - | 649 W/m² | - |
| 1778017827 | 20.56° C | 43% | 1174.9 hPa | 0 mm | - | 664 W/m² | - |
| 1778017525 | 20.56° C | 45% | 1174.9 hPa | 0 mm | - | 662 W/m² | - |
| 1778017221 | 20° C | 44% | 1175.2 hPa | 0 mm | - | 682 W/m² | - |
| 1778016919 | 20° C | 44% | 1175.2 hPa | 0 mm | - | 576 W/m² | - |
| 1778016615 | 20.56° C | 45% | 1175.1 hPa | 0 mm | - | 125 W/m² | - |
| 1778016312 | 19.44° C | 46% | 1175.4 hPa | 0 mm | - | 698 W/m² | - |
| 1778016009 | 20° C | 45% | 1175.2 hPa | 0 mm | - | 85 W/m² | - |
| 1778015706 | 19.44° C | 48% | 1175.2 hPa | 0 mm | - | 729 W/m² | - |
| 1778015403 | 20.56° C | 44% | 1175.2 hPa | 0 mm | - | 582 W/m² | - |
| 1778015099 | 20.56° C | 45% | 1175.3 hPa | 0 mm | - | 720 W/m² | - |
| 1778014796 | 20.56° C | 43% | 1175.3 hPa | 0 mm | - | 758 W/m² | - |
| 1778014495 | 20.56° C | 44% | 1175.4 hPa | 0 mm | - | 752 W/m² | - |
| 1778014191 | 20° C | 45% | 1175.4 hPa | 0 mm | - | 750 W/m² | - |
| 1778013889 | 19.44° C | 45% | 1175.4 hPa | 0 mm | - | 754 W/m² | - |
| 1778013586 | 19.44° C | 43% | 1175.4 hPa | 0 mm | - | 749 W/m² | - |
| 1778013282 | 18.89° C | 45% | 1175.6 hPa | 0 mm | - | 752 W/m² | - |
| 1778012979 | 19.44° C | 45% | 1175.7 hPa | 0 mm | - | 760 W/m² | - |
| 1778012675 | 18.89° C | 46% | 1175.6 hPa | 0 mm | - | 757 W/m² | - |
| 1778012372 | 20° C | 44% | 1175.5 hPa | 0 mm | - | 768 W/m² | - |
| 1778012069 | 19.44° C | 44% | 1175.6 hPa | 0 mm | - | 771 W/m² | - |
| 1778011767 | 18.89° C | 46% | 1175.4 hPa | 0 mm | - | 767 W/m² | - |
| 1778011464 | 18.89° C | 46% | 1175.6 hPa | 0 mm | - | 798 W/m² | - |
* Rain latest hour (hover to see other rain measurements)
** Current wind speed in m/s (hover to see current wind gust speed)